Location: Chmeln�
(49.6483°N, 14.9871°E)
Time: 03:47:06
(UTC+00:00)

Cosmos 1707 - Pass Details

Date: 18 September 2020
Orbit: 515 x 530 km, 82.5° (Epoch: 29 October)

Event Time Altitude Azimuth Distance (km) Brightness Sun altitude
Rises 17:39:48 0° 357° (N) 2,656 6.5 -6.3°
Reaches altitude 10° 17:42:08 10° 8° (N) 1,761 5.4 -6.6°
Maximum altitude 17:45:37 32° 73° (ENE) 914 3.5 -7.2°
Drops below altitude 10° 17:49:04 10° 137° (SE) 1,743 4.9 -7.7°
Enters shadow 17:50:48 - 146° (SE) 2,403 5.7 -8.0°
